Simultaneous Nadir Overpasses (SNOs) Predictions

Prediction of SNOs between AQUA and METOP-A Satellite Orbit:

Table of predicted SNOs for the next 14.0 days since TLE Epoch: 11/4/2016
Index Date (AQUA) Time (AQUA) Lat,Lon (AQUA) SZA (AQUA ) Date (METOP-A) Time (METOP-A) Lat,Lon (METOP-A) SZA (METOP-A ) Distance(km) Time Diff (sec)
1 11/04/2016 14:04:03 -74.27, 142.13 90.20 11/04/2016 14:05:12 -74.31, 143.90 90.17 53.52 69
2 11/07/2016 07:59:16 -73.78,-125.62 89.87 11/07/2016 07:58:23 -73.80,-125.62 89.86 1.32 53
3 11/07/2016 08:48:45 73.86, 41.85 90.22 11/07/2016 08:49:01 73.88, 41.92 90.25 3.35 16
4 11/07/2016 09:38:24 -74.55,-152.12 89.06 11/07/2016 09:39:29 -74.56,-149.04 89.08 91.21 65
5 11/10/2016 03:33:30 -73.77, -59.15 89.08 11/10/2016 03:32:44 -73.80, -59.20 89.05 3.22 46
6 11/10/2016 04:22:59 73.86, 108.30 91.02 11/10/2016 04:23:22 73.88, 108.33 91.05 2.81 23
7 11/12/2016 23:07:46 -73.82, 7.17 88.26 11/12/2016 23:07:06 -73.80, 7.22 88.28 3.22 40
8 11/12/2016 23:57:14 73.86, 174.72 91.80 11/12/2016 23:57:44 73.87, 174.73 91.81 1.23 30
9 11/15/2016 18:42:00 -73.79, 73.70 87.57 11/15/2016 18:41:28 -73.80, 73.62 87.56 2.59 32
10 11/15/2016 19:31:29 73.88,-118.88 92.54 11/15/2016 19:32:06 73.87,-118.87 92.53 1.87 37




NCC Satellite Simultaneous Nadir Overpasses (SNOs) Prediction Service
